Time,TemperatureF,DewpointF,PressureIn,WindDirection,WindDirectionDegrees,WindSpeedMPH,WindSpeedGustMPH,Humidity,HourlyPrecipIn,Conditions,Clouds,dailyrainin,SoftwareType,DateUTC
2013-04-24 00:01:00,29.7,24.3,29.97,WNW,298,0.0,1.0,80,0.00,,,0.00,Wunderground v.1.15,2013-04-24 05:01:00,
2013-04-24 00:07:00,29.4,24.3,29.97,WNW,298,0.0,1.0,81,0.00,,,0.00,Wunderground v.1.15,2013-04-24 05:07:00,
2013-04-24 00:12:00,29.2,24.4,29.97,WSW,250,0.0,1.0,82,0.00,,,0.00,Wunderground v.1.15,2013-04-24 05:12:00,
2013-04-24 00:17:00,29.2,24.4,29.97,WSW,250,0.0,1.0,82,0.00,,,0.00,Wunderground v.1.15,2013-04-24 05:17:00,
2013-04-24 00:22:00,29.0,24.2,29.97,WSW,250,0.0,1.0,82,0.00,,,0.00,Wunderground v.1.15,2013-04-24 05:22:00,
2013-04-24 00:27:00,29.0,24.5,29.97,WSW,250,0.0,1.0,83,0.00,,,0.00,Wunderground v.1.15,2013-04-24 05:27:00,
2013-04-24 00:33:00,28.9,24.4,29.97,WSW,250,0.0,1.0,83,0.00,,,0.00,Wunderground v.1.15,2013-04-24 05:33:00,
2013-04-24 00:38:00,28.9,24.7,29.97,WSW,250,0.0,1.0,84,0.00,,,0.00,Wunderground v.1.15,2013-04-24 05:38:00,
2013-04-24 00:43:00,28.9,24.4,29.97,WSW,255,0.0,1.0,83,0.00,,,0.00,Wunderground v.1.15,2013-04-24 05:43:00,
2013-04-24 00:48:00,28.8,24.3,29.97,WSW,255,0.0,1.0,83,0.00,,,0.00,Wunderground v.1.15,2013-04-24 05:48:00,
2013-04-24 00:53:00,28.6,24.1,29.97,WSW,255,0.0,1.0,83,0.00,,,0.00,Wunderground v.1.15,2013-04-24 05:53:00,
2013-04-24 00:59:00,28.5,24.3,29.97,WSW,255,0.0,1.0,84,0.00,,,0.00,Wunderground v.1.15,2013-04-24 05:59:00,
2013-04-24 01:04:00,28.3,24.1,29.97,WSW,255,0.0,1.0,84,0.00,,,0.00,Wunderground v.1.15,2013-04-24 06:04:00,
2013-04-24 01:09:00,28.2,24.0,29.97,WSW,255,0.0,1.0,84,0.00,,,0.00,Wunderground v.1.15,2013-04-24 06:09:00,
2013-04-24 01:14:00,28.1,24.2,29.97,WSW,255,0.0,1.0,85,0.00,,,0.00,Wunderground v.1.15,2013-04-24 06:14:00,
2013-04-24 01:19:00,28.0,24.1,29.97,WSW,255,0.0,1.0,85,0.00,,,0.00,Wunderground v.1.15,2013-04-24 06:19:00,
2013-04-24 01:25:00,27.7,23.8,29.97,WSW,255,0.0,1.0,85,0.00,,,0.00,Wunderground v.1.15,2013-04-24 06:25:00,
2013-04-24 01:30:00,27.4,23.8,29.96,WSW,255,0.0,1.0,86,0.00,,,0.00,Wunderground v.1.15,2013-04-24 06:30:00,
2013-04-24 01:35:00,27.1,23.5,29.96,WSW,255,0.0,1.0,86,0.00,,,0.00,Wunderground v.1.15,2013-04-24 06:35:00,
2013-04-24 01:41:00,26.9,23.5,29.96,WSW,255,0.0,1.0,87,0.00,,,0.00,Wunderground v.1.15,2013-04-24 06:41:00,
2013-04-24 01:46:00,26.8,23.4,29.96,WSW,255,0.0,1.0,87,0.00,,,0.00,Wunderground v.1.15,2013-04-24 06:46:00,
2013-04-24 01:51:00,26.8,23.7,29.96,WSW,255,0.0,1.0,88,0.00,,,0.00,Wunderground v.1.15,2013-04-24 06:51:00,
2013-04-24 01:56:00,26.6,23.5,29.96,WSW,255,0.0,1.0,88,0.00,,,0.00,Wunderground v.1.15,2013-04-24 06:56:00,
2013-04-24 02:02:00,26.5,23.7,29.96,WSW,255,0.0,1.0,89,0.00,,,0.00,Wunderground v.1.15,2013-04-24 07:02:00,
2013-04-24 02:07:00,26.6,23.8,29.95,WSW,255,0.0,1.0,89,0.00,,,0.00,Wunderground v.1.15,2013-04-24 07:07:00,
2013-04-24 02:12:00,26.7,23.9,29.95,WSW,255,0.0,1.0,89,0.00,,,0.00,Wunderground v.1.15,2013-04-24 07:12:00,
2013-04-24 02:17:00,26.8,24.0,29.95,WSW,255,0.0,1.0,89,0.00,,,0.00,Wunderground v.1.15,2013-04-24 07:17:00,
2013-04-24 02:22:00,26.8,24.0,29.96,WSW,255,0.0,1.0,89,0.00,,,0.00,Wunderground v.1.15,2013-04-24 07:22:00,
2013-04-24 02:28:00,26.6,23.5,29.96,WSW,255,0.0,1.0,88,0.00,,,0.00,Wunderground v.1.15,2013-04-24 07:28:00,
2013-04-24 02:33:00,26.2,23.4,29.96,WSW,255,0.0,1.0,89,0.00,,,0.00,Wunderground v.1.15,2013-04-24 07:33:00,
2013-04-24 02:38:00,25.8,23.0,29.96,WSW,255,0.0,1.0,89,0.00,,,0.00,Wunderground v.1.15,2013-04-24 07:38:00,
2013-04-24 02:44:00,25.4,22.9,29.96,WSW,255,0.0,1.0,90,0.00,,,0.00,Wunderground v.1.15,2013-04-24 07:44:00,
2013-04-24 02:49:00,25.4,23.1,29.96,WSW,255,0.0,1.0,91,0.00,,,0.00,Wunderground v.1.15,2013-04-24 07:49:00,
2013-04-24 02:54:00,25.4,23.4,29.96,WSW,252,0.0,1.0,92,0.00,,,0.00,Wunderground v.1.15,2013-04-24 07:54:00,
2013-04-24 03:00:00,25.5,23.5,29.96,WSW,246,0.0,1.0,92,0.00,,,0.00,Wunderground v.1.15,2013-04-24 08:00:00,
2013-04-24 03:05:00,25.6,23.6,29.96,WSW,245,0.0,1.0,92,0.00,,,0.00,Wunderground v.1.15,2013-04-24 08:05:00,
2013-04-24 03:10:00,25.6,23.9,29.96,SW,235,0.0,1.0,93,0.00,,,0.00,Wunderground v.1.15,2013-04-24 08:10:00,
2013-04-24 03:15:00,25.7,24.0,29.96,SW,235,0.0,1.0,93,0.00,,,0.00,Wunderground v.1.15,2013-04-24 08:15:00,
2013-04-24 03:20:00,25.6,23.9,29.96,SW,235,0.0,1.0,93,0.00,,,0.00,Wunderground v.1.15,2013-04-24 08:20:00,
2013-04-24 03:25:00,25.6,23.9,29.96,SW,236,0.0,1.0,93,0.00,,,0.00,Wunderground v.1.15,2013-04-24 08:25:00,
2013-04-24 03:30:00,25.5,23.8,29.96,SW,236,0.0,1.0,93,0.00,,,0.00,Wunderground v.1.15,2013-04-24 08:30:00,
2013-04-24 03:35:00,25.4,23.7,29.96,SW,236,0.0,1.0,93,0.00,,,0.00,Wunderground v.1.15,2013-04-24 08:35:00,
2013-04-24 03:40:00,25.4,23.7,29.96,SW,235,0.0,1.0,93,0.00,,,0.00,Wunderground v.1.15,2013-04-24 08:40:00,
2013-04-24 03:45:00,25.4,23.7,29.96,SW,235,0.0,1.0,93,0.00,,,0.00,Wunderground v.1.15,2013-04-24 08:45:00,
2013-04-24 03:51:00,25.4,23.7,29.96,SW,236,0.0,1.0,93,0.00,,,0.00,Wunderground v.1.15,2013-04-24 08:51:00,
2013-04-24 03:56:00,25.5,23.8,29.95,SW,226,0.0,1.0,93,0.00,,,0.00,Wunderground v.1.15,2013-04-24 08:56:00,
2013-04-24 04:01:00,25.6,24.1,29.95,SW,226,0.0,1.0,94,0.00,,,0.00,Wunderground v.1.15,2013-04-24 09:01:00,
2013-04-24 04:06:00,25.7,24.2,29.95,SW,226,0.0,1.0,94,0.00,,,0.00,Wunderground v.1.15,2013-04-24 09:06:00,
2013-04-24 04:11:00,25.7,24.2,29.95,SW,226,0.0,1.0,94,0.00,,,0.00,Wunderground v.1.15,2013-04-24 09:11:00,
2013-04-24 04:17:00,25.7,24.2,29.95,SW,226,0.0,1.0,94,0.00,,,0.00,Wunderground v.1.15,2013-04-24 09:17:00,
2013-04-24 04:22:00,25.6,23.9,29.95,SW,226,0.0,1.0,93,0.00,,,0.00,Wunderground v.1.15,2013-04-24 09:22:00,
2013-04-24 04:27:00,25.6,24.1,29.95,SW,226,0.0,1.0,94,0.00,,,0.00,Wunderground v.1.15,2013-04-24 09:27:00,
2013-04-24 04:32:00,25.5,24.0,29.95,SW,226,0.0,1.0,94,0.00,,,0.00,Wunderground v.1.15,2013-04-24 09:32:00,
2013-04-24 04:38:00,25.4,23.9,29.95,SW,226,0.0,1.0,94,0.00,,,0.00,Wunderground v.1.15,2013-04-24 09:38:00,
2013-04-24 04:43:00,25.4,23.9,29.95,SW,226,0.0,1.0,94,0.00,,,0.00,Wunderground v.1.15,2013-04-24 09:43:00,
2013-04-24 04:48:00,25.3,23.8,29.95,SW,226,0.0,1.0,94,0.00,,,0.00,Wunderground v.1.15,2013-04-24 09:48:00,
2013-04-24 04:53:00,25.3,23.8,29.95,SW,226,0.0,1.0,94,0.00,,,0.00,Wunderground v.1.15,2013-04-24 09:53:00,
2013-04-24 04:58:00,25.1,23.6,29.95,SW,226,0.0,1.0,94,0.00,,,0.00,Wunderground v.1.15,2013-04-24 09:58:00,
2013-04-24 05:03:00,25.1,23.6,29.95,SW,226,0.0,1.0,94,0.00,,,0.00,Wunderground v.1.15,2013-04-24 10:03:00,
2013-04-24 05:09:00,25.0,23.5,29.95,SW,226,0.0,1.0,94,0.00,,,0.00,Wunderground v.1.15,2013-04-24 10:09:00,
2013-04-24 05:14:00,25.0,23.5,29.95,SW,224,0.0,1.0,94,0.00,,,0.00,Wunderground v.1.15,2013-04-24 10:14:00,
2013-04-24 05:19:00,24.9,23.4,29.94,SW,225,0.0,1.0,94,0.00,,,0.00,Wunderground v.1.15,2013-04-24 10:19:00,
2013-04-24 05:24:00,24.9,23.4,29.94,SW,224,0.0,1.0,94,0.00,,,0.00,Wunderground v.1.15,2013-04-24 10:24:00,
2013-04-24 05:29:00,24.9,23.4,29.94,SW,224,0.0,1.0,94,0.00,,,0.00,Wunderground v.1.15,2013-04-24 10:29:00,
2013-04-24 05:35:00,24.9,23.4,29.94,SW,225,0.0,1.0,94,0.00,,,0.00,Wunderground v.1.15,2013-04-24 10:35:00,
2013-04-24 05:40:00,24.9,23.4,29.94,SW,224,0.0,1.0,94,0.00,,,0.00,Wunderground v.1.15,2013-04-24 10:40:00,
2013-04-24 05:45:00,24.8,23.3,29.94,SW,226,0.0,1.0,94,0.00,,,0.00,Wunderground v.1.15,2013-04-24 10:45:00,
2013-04-24 05:50:00,24.7,23.2,29.94,SW,224,0.0,1.0,94,0.00,,,0.00,Wunderground v.1.15,2013-04-24 10:50:00,
2013-04-24 05:55:00,24.7,23.2,29.93,WSW,246,0.0,1.0,94,0.00,,,0.00,Wunderground v.1.15,2013-04-24 10:55:00,
2013-04-24 06:01:00,24.7,23.2,29.93,SW,228,0.0,1.0,94,0.00,,,0.00,Wunderground v.1.15,2013-04-24 11:01:00,
2013-04-24 06:06:00,24.8,23.3,29.93,West,259,1.0,1.0,94,0.00,,,0.00,Wunderground v.1.15,2013-04-24 11:06:00,
2013-04-24 06:11:00,24.9,23.4,29.93,WSW,240,1.0,1.0,94,0.00,,,0.00,Wunderground v.1.15,2013-04-24 11:11:00,
2013-04-24 06:16:00,25.0,23.5,29.93,SW,236,1.0,1.0,94,0.00,,,0.00,Wunderground v.1.15,2013-04-24 11:16:00,
2013-04-24 06:21:00,25.0,23.5,29.93,WSW,237,1.0,1.0,94,0.00,,,0.00,Wunderground v.1.15,2013-04-24 11:21:00,
2013-04-24 06:27:00,25.1,23.6,29.93,WSW,257,1.0,1.0,94,0.00,,,0.00,Wunderground v.1.15,2013-04-24 11:27:00,
2013-04-24 06:32:00,25.2,23.7,29.93,SW,228,1.0,1.0,94,0.00,,,0.00,Wunderground v.1.15,2013-04-24 11:32:00,
2013-04-24 06:37:00,25.2,23.7,29.93,SW,231,1.0,1.0,94,0.00,,,0.00,Wunderground v.1.15,2013-04-24 11:37:00,
2013-04-24 06:42:00,25.3,23.8,29.93,WSW,256,1.0,1.0,94,0.00,,,0.00,Wunderground v.1.15,2013-04-24 11:42:00,
2013-04-24 06:47:00,25.3,23.6,29.93,WSW,253,1.0,1.0,93,0.00,,,0.00,Wunderground v.1.15,2013-04-24 11:47:00,
2013-04-24 06:53:00,25.4,23.7,29.93,WSW,257,1.0,1.0,93,0.00,,,0.00,Wunderground v.1.15,2013-04-24 11:53:00,
2013-04-24 06:58:00,25.6,23.9,29.93,WSW,252,1.0,1.0,93,0.00,,,0.00,Wunderground v.1.15,2013-04-24 11:58:00,
2013-04-24 07:03:00,25.8,24.1,29.93,WSW,246,1.0,1.0,93,0.00,,,0.00,Wunderground v.1.15,2013-04-24 12:03:00,
2013-04-24 07:08:00,26.1,24.1,29.93,WSW,248,1.0,1.0,92,0.00,,,0.00,Wunderground v.1.15,2013-04-24 12:08:00,
2013-04-24 07:13:00,26.2,24.2,29.93,WSW,250,1.0,1.0,92,0.00,,,0.00,Wunderground v.1.15,2013-04-24 12:13:00,
2013-04-24 07:19:00,26.5,24.5,29.92,WSW,245,1.0,2.0,92,0.00,,,0.00,Wunderground v.1.15,2013-04-24 12:19:00,
2013-04-24 07:24:00,26.8,24.5,29.92,WSW,249,1.0,2.0,91,0.00,,,0.00,Wunderground v.1.15,2013-04-24 12:24:00,
2013-04-24 07:29:00,26.9,24.6,29.93,West,269,1.0,2.0,91,0.00,,,0.00,Wunderground v.1.15,2013-04-24 12:29:00,
2013-04-24 07:34:00,27.2,24.9,29.93,WSW,250,1.0,3.0,91,0.00,,,0.00,Wunderground v.1.15,2013-04-24 12:34:00,
2013-04-24 07:39:00,27.5,25.0,29.92,WSW,257,2.0,3.0,90,0.00,,,0.00,Wunderground v.1.15,2013-04-24 12:39:00,
2013-04-24 07:45:00,27.8,25.2,29.93,WSW,244,2.0,3.0,90,0.00,,,0.00,Wunderground v.1.15,2013-04-24 12:45:00,
2013-04-24 07:50:00,28.1,25.3,29.93,WSW,242,2.0,2.0,89,0.00,,,0.00,Wunderground v.1.15,2013-04-24 12:50:00,
2013-04-24 07:55:00,28.3,25.5,29.93,WSW,248,2.0,2.0,89,0.00,,,0.00,Wunderground v.1.15,2013-04-24 12:55:00,
2013-04-24 08:00:00,28.6,25.8,29.92,West,262,2.0,2.0,89,0.00,,,0.00,Wunderground v.1.15,2013-04-24 13:00:00,
2013-04-24 08:05:00,29.0,25.9,29.92,West,265,2.0,3.0,88,0.00,,,0.00,Wunderground v.1.15,2013-04-24 13:05:00,
2013-04-24 08:10:00,29.4,26.3,29.92,WSW,250,2.0,2.0,88,0.00,,,0.00,Wunderground v.1.15,2013-04-24 13:10:00,
2013-04-24 08:15:00,29.8,26.4,29.92,WSW,257,2.0,4.0,87,0.00,,,0.00,Wunderground v.1.15,2013-04-24 13:15:00,
2013-04-24 08:20:00,30.2,26.5,29.92,West,263,2.0,2.0,86,0.00,,,0.00,Wunderground v.1.15,2013-04-24 13:20:00,
2013-04-24 08:25:00,30.5,26.8,29.92,WSW,247,2.0,4.0,86,0.00,,,0.00,Wunderground v.1.15,2013-04-24 13:25:00,
2013-04-24 08:30:00,30.7,26.7,29.92,WSW,252,2.0,2.0,85,0.00,,,0.00,Wunderground v.1.15,2013-04-24 13:30:00,
2013-04-24 08:35:00,31.0,27.0,29.92,WSW,252,2.0,2.0,85,0.00,,,0.00,Wunderground v.1.15,2013-04-24 13:35:00,
2013-04-24 08:41:00,31.4,27.1,29.92,WSW,255,3.0,4.0,84,0.00,,,0.00,Wunderground v.1.15,2013-04-24 13:41:00,
2013-04-24 08:46:00,31.7,27.4,29.92,SW,226,3.0,4.0,84,0.00,,,0.00,Wunderground v.1.15,2013-04-24 13:46:00,
2013-04-24 08:51:00,32.0,27.4,29.92,West,274,3.0,4.0,83,0.00,,,0.00,Wunderground v.1.15,2013-04-24 13:51:00,
2013-04-24 08:56:00,32.3,27.7,29.92,SW,226,3.0,4.0,83,0.00,,,0.00,Wunderground v.1.15,2013-04-24 13:56:00,
2013-04-24 09:01:00,32.5,27.6,29.92,WSW,250,3.0,4.0,82,0.00,,,0.00,Wunderground v.1.15,2013-04-24 14:01:00,
2013-04-24 09:07:00,32.7,27.8,29.92,WSW,248,3.0,4.0,82,0.00,,,0.00,Wunderground v.1.15,2013-04-24 14:07:00,
2013-04-24 09:12:00,33.1,28.5,29.92,West,267,2.0,3.0,83,0.00,,,0.00,Wunderground v.1.15,2013-04-24 14:12:00,
2013-04-24 09:17:00,33.3,28.4,29.92,WSW,255,2.0,3.0,82,0.00,,,0.00,Wunderground v.1.15,2013-04-24 14:17:00,
2013-04-24 09:22:00,33.5,28.3,29.91,WSW,245,3.0,4.0,81,0.00,,,0.00,Wunderground v.1.15,2013-04-24 14:22:00,
2013-04-24 09:27:00,33.6,28.4,29.91,West,266,3.0,4.0,81,0.00,,,0.00,Wunderground v.1.15,2013-04-24 14:27:00,
2013-04-24 09:33:00,34.1,28.9,29.91,SW,235,3.0,3.0,81,0.00,,,0.00,Wunderground v.1.15,2013-04-24 14:33:00,
2013-04-24 09:38:00,34.4,28.9,29.91,WSW,248,2.0,3.0,80,0.00,,,0.00,Wunderground v.1.15,2013-04-24 14:38:00,
2013-04-24 09:43:00,34.8,29.0,29.91,WSW,257,2.0,3.0,79,0.00,,,0.00,Wunderground v.1.15,2013-04-24 14:43:00,
2013-04-24 09:48:00,35.1,29.2,29.91,WSW,252,3.0,3.0,79,0.00,,,0.00,Wunderground v.1.15,2013-04-24 14:48:00,
2013-04-24 09:53:00,35.6,29.7,29.91,WNW,287,2.0,3.0,79,0.00,,,0.00,Wunderground v.1.15,2013-04-24 14:53:00,
2013-04-24 09:59:00,36.1,29.9,29.91,WSW,257,2.0,3.0,78,0.00,,,0.00,Wunderground v.1.15,2013-04-24 14:59:00,
2013-04-24 10:04:00,36.5,30.0,29.91,WSW,256,2.0,3.0,77,0.00,,,0.00,Wunderground v.1.15,2013-04-24 15:04:00,
2013-04-24 10:10:00,36.9,30.7,29.91,WSW,245,2.0,3.0,78,0.00,,,0.00,Wunderground v.1.15,2013-04-24 15:10:00,
2013-04-24 10:15:00,37.3,30.4,29.91,West,264,3.0,6.0,76,0.00,,,0.00,Wunderground v.1.15,2013-04-24 15:15:00,
2013-04-24 10:20:00,37.7,30.5,29.91,SW,228,3.0,3.0,75,0.00,,,0.00,Wunderground v.1.15,2013-04-24 15:20:00,
2013-04-24 10:25:00,38.0,30.8,29.91,WSW,255,3.0,8.0,75,0.00,,,0.00,Wunderground v.1.15,2013-04-24 15:25:00,
2013-04-24 10:31:00,38.3,30.7,29.91,WSW,257,3.0,3.0,74,0.00,,,0.00,Wunderground v.1.15,2013-04-24 15:31:00,
2013-04-24 10:36:00,38.7,31.1,29.91,WSW,250,3.0,4.0,74,0.00,,,0.00,Wunderground v.1.15,2013-04-24 15:36:00,
2013-04-24 10:41:00,39.0,31.4,29.91,WSW,254,3.0,5.0,74,0.00,,,0.00,Wunderground v.1.15,2013-04-24 15:41:00,
2013-04-24 10:46:00,39.3,32.0,29.91,WSW,239,3.0,5.0,75,0.00,,,0.00,Wunderground v.1.15,2013-04-24 15:46:00,
2013-04-24 10:51:00,39.4,31.8,29.91,WSW,253,3.0,3.0,74,0.00,,,0.00,Wunderground v.1.15,2013-04-24 15:51:00,
2013-04-24 10:57:00,39.5,31.6,29.90,WSW,245,3.0,5.0,73,0.00,,,0.00,Wunderground v.1.15,2013-04-24 15:57:00,
2013-04-24 11:02:00,39.8,31.8,29.91,West,259,3.0,5.0,73,0.00,,,0.00,Wunderground v.1.15,2013-04-24 16:02:00,
2013-04-24 11:07:00,40.1,31.8,29.91,WSW,246,3.0,5.0,72,0.00,,,0.00,Wunderground v.1.15,2013-04-24 16:07:00,
2013-04-24 11:12:00,40.3,32.0,29.91,WSW,258,3.0,3.0,72,0.00,,,0.00,Wunderground v.1.15,2013-04-24 16:12:00,
2013-04-24 11:17:00,40.5,32.2,29.90,WSW,240,3.0,4.0,72,0.00,,,0.00,Wunderground v.1.15,2013-04-24 16:17:00,
2013-04-24 11:23:00,40.9,32.9,29.90,WSW,253,3.0,3.0,73,0.00,,,0.00,Wunderground v.1.15,2013-04-24 16:23:00,
2013-04-24 11:28:00,41.5,32.8,29.90,WSW,250,3.0,4.0,71,0.00,,,0.00,Wunderground v.1.15,2013-04-24 16:28:00,
2013-04-24 11:33:00,41.9,32.8,29.90,West,260,3.0,5.0,70,0.00,,,0.00,Wunderground v.1.15,2013-04-24 16:33:00,
2013-04-24 11:38:00,42.2,32.8,29.90,WSW,255,3.0,5.0,69,0.00,,,0.00,Wunderground v.1.15,2013-04-24 16:38:00,
2013-04-24 11:43:00,42.4,32.9,29.90,WSW,252,3.0,3.0,69,0.00,,,0.00,Wunderground v.1.15,2013-04-24 16:43:00,
2013-04-24 11:48:00,42.6,32.8,29.90,WSW,253,3.0,5.0,68,0.00,,,0.00,Wunderground v.1.15,2013-04-24 16:48:00,
2013-04-24 11:53:00,42.8,33.0,29.90,WSW,245,3.0,4.0,68,0.00,,,0.00,Wunderground v.1.15,2013-04-24 16:53:00,
2013-04-24 11:58:00,43.1,32.9,29.90,West,259,4.0,5.0,67,0.00,,,0.00,Wunderground v.1.15,2013-04-24 16:58:00,
2013-04-24 12:03:00,43.3,33.1,29.90,WSW,245,4.0,6.0,67,0.00,,,0.00,Wunderground v.1.15,2013-04-24 17:03:00,
2013-04-24 12:08:00,43.5,33.3,29.90,WSW,243,4.0,6.0,67,0.00,,,0.00,Wunderground v.1.15,2013-04-24 17:08:00,
2013-04-24 12:13:00,43.6,33.4,29.89,SW,236,4.0,6.0,67,0.00,,,0.00,Wunderground v.1.15,2013-04-24 17:13:00,
2013-04-24 12:19:00,43.6,33.0,29.89,SW,229,5.0,7.0,66,0.00,,,0.00,Wunderground v.1.15,2013-04-24 17:19:00,
2013-04-24 12:24:00,44.0,34.1,29.89,WSW,255,4.0,5.0,68,0.00,,,0.00,Wunderground v.1.15,2013-04-24 17:24:00,
2013-04-24 12:29:00,44.4,33.7,29.89,West,266,4.0,5.0,66,0.00,,,0.00,Wunderground v.1.15,2013-04-24 17:29:00,
2013-04-24 12:34:00,44.5,34.2,29.88,WSW,255,3.0,5.0,67,0.00,,,0.00,Wunderground v.1.15,2013-04-24 17:34:00,
2013-04-24 12:39:00,44.8,34.1,29.88,West,264,3.0,5.0,66,0.00,,,0.00,Wunderground v.1.15,2013-04-24 17:39:00,
2013-04-24 12:45:00,45.1,34.0,29.88,WSW,253,3.0,5.0,65,0.00,,,0.00,Wunderground v.1.15,2013-04-24 17:45:00,
2013-04-24 12:50:00,44.9,33.8,29.88,WSW,243,4.0,4.0,65,0.00,,,0.00,Wunderground v.1.15,2013-04-24 17:50:00,
2013-04-24 12:55:00,45.3,34.2,29.87,SW,222,4.0,7.0,65,0.00,,,0.00,Wunderground v.1.15,2013-04-24 17:55:00,
2013-04-24 13:00:00,45.5,33.6,29.87,West,264,4.0,4.0,63,0.00,,,0.00,Wunderground v.1.15,2013-04-24 18:00:00,
2013-04-24 13:05:00,45.5,34.4,29.87,West,277,4.0,6.0,65,0.00,,,0.00,Wunderground v.1.15,2013-04-24 18:05:00,
2013-04-24 13:11:00,46.1,35.4,29.87,SW,225,4.0,4.0,66,0.00,,,0.00,Wunderground v.1.15,2013-04-24 18:11:00,
2013-04-24 13:16:00,46.5,35.4,29.86,SW,229,3.0,4.0,65,0.00,,,0.00,Wunderground v.1.15,2013-04-24 18:16:00,
2013-04-24 13:21:00,46.7,34.0,29.86,West,281,4.0,7.0,61,0.00,,,0.00,Wunderground v.1.15,2013-04-24 18:21:00,
2013-04-24 13:26:00,46.9,34.1,29.86,West,277,4.0,7.0,61,0.00,,,0.00,Wunderground v.1.15,2013-04-24 18:26:00,
2013-04-24 13:31:00,47.3,34.9,29.86,West,260,4.0,7.0,62,0.00,,,0.00,Wunderground v.1.15,2013-04-24 18:31:00,
2013-04-24 13:37:00,47.7,34.1,29.85,SW,233,4.0,8.0,59,0.00,,,0.00,Wunderground v.1.15,2013-04-24 18:37:00,
2013-04-24 13:42:00,47.9,35.1,29.85,WSW,248,4.0,7.0,61,0.00,,,0.00,Wunderground v.1.15,2013-04-24 18:42:00,
2013-04-24 13:47:00,48.0,33.9,29.85,SSW,195,5.0,7.0,58,0.00,,,0.00,Wunderground v.1.15,2013-04-24 18:47:00,
2013-04-24 13:52:00,47.8,31.9,29.85,WSW,243,5.0,7.0,54,0.00,,,0.00,Wunderground v.1.15,2013-04-24 18:52:00,
2013-04-24 13:57:00,47.8,32.4,29.85,WSW,252,6.0,11.0,55,0.00,,,0.00,Wunderground v.1.15,2013-04-24 18:57:00,
2013-04-24 14:03:00,47.7,33.6,29.85,SW,228,6.0,7.0,58,0.00,,,0.00,Wunderground v.1.15,2013-04-24 19:03:00,
2013-04-24 14:08:00,48.0,33.0,29.85,SW,229,6.0,8.0,56,0.00,,,0.00,Wunderground v.1.15,2013-04-24 19:08:00,
2013-04-24 14:13:00,48.1,33.6,29.85,WSW,245,5.0,6.0,57,0.00,,,0.00,Wunderground v.1.15,2013-04-24 19:13:00,
2013-04-24 14:18:00,48.4,34.3,29.84,WSW,249,5.0,10.0,58,0.00,,,0.00,Wunderground v.1.15,2013-04-24 19:18:00,
2013-04-24 14:23:00,48.3,32.9,29.84,SSW,212,5.0,5.0,55,0.00,,,0.00,Wunderground v.1.15,2013-04-24 19:23:00,
2013-04-24 14:29:00,48.2,32.3,29.84,WSW,238,6.0,6.0,54,0.00,,,0.00,Wunderground v.1.15,2013-04-24 19:29:00,
2013-04-24 14:34:00,48.5,32.6,29.84,SW,224,5.0,6.0,54,0.00,,,0.00,Wunderground v.1.15,2013-04-24 19:34:00,
2013-04-24 14:39:00,48.3,32.4,29.84,West,271,5.0,7.0,54,0.00,,,0.00,Wunderground v.1.15,2013-04-24 19:39:00,
2013-04-24 14:44:00,48.2,33.2,29.84,WSW,253,6.0,8.0,56,0.00,,,0.00,Wunderground v.1.15,2013-04-24 19:44:00,
2013-04-24 14:49:00,48.5,33.5,29.84,WSW,256,5.0,8.0,56,0.00,,,0.00,Wunderground v.1.15,2013-04-24 19:49:00,
2013-04-24 14:55:00,48.1,33.1,29.84,South,183,6.0,10.0,56,0.00,,,0.00,Wunderground v.1.15,2013-04-24 19:55:00,
2013-04-24 15:00:00,48.3,33.8,29.84,WSW,257,6.0,6.0,57,0.00,,,0.00,Wunderground v.1.15,2013-04-24 20:00:00,
2013-04-24 15:05:00,48.4,33.9,29.84,WSW,256,6.0,7.0,57,0.00,,,0.00,Wunderground v.1.15,2013-04-24 20:05:00,
2013-04-24 15:10:00,48.9,34.8,29.84,WSW,257,5.0,5.0,58,0.00,,,0.00,Wunderground v.1.15,2013-04-24 20:10:00,
2013-04-24 15:15:00,48.8,34.7,29.84,WSW,240,4.0,5.0,58,0.00,,,0.00,Wunderground v.1.15,2013-04-24 20:15:00,
2013-04-24 15:21:00,48.5,34.8,29.83,West,270,4.0,5.0,59,0.00,,,0.00,Wunderground v.1.15,2013-04-24 20:21:00,
2013-04-24 15:26:00,48.1,34.4,29.83,West,275,5.0,6.0,59,0.00,,,0.00,Wunderground v.1.15,2013-04-24 20:26:00,
2013-04-24 15:31:00,47.6,34.0,29.83,SSW,211,5.0,5.0,59,0.00,,,0.00,Wunderground v.1.15,2013-04-24 20:31:00,
2013-04-24 15:36:00,47.8,35.4,29.83,West,269,4.0,5.0,62,0.00,,,0.00,Wunderground v.1.15,2013-04-24 20:36:00,
2013-04-24 15:41:00,48.1,34.9,29.83,WSW,245,4.0,5.0,60,0.00,,,0.00,Wunderground v.1.15,2013-04-24 20:41:00,
2013-04-24 15:46:00,47.7,34.5,29.83,WSW,255,4.0,5.0,60,0.00,,,0.00,Wunderground v.1.15,2013-04-24 20:46:00,
2013-04-24 15:51:00,48.1,35.3,29.83,West,263,3.0,4.0,61,0.00,,,0.00,Wunderground v.1.15,2013-04-24 20:51:00,
2013-04-24 15:56:00,47.9,33.4,29.82,SW,219,4.0,5.0,57,0.00,,,0.00,Wunderground v.1.15,2013-04-24 20:56:00,
2013-04-24 16:01:00,48.4,35.6,29.82,WSW,246,4.0,5.0,61,0.00,,,0.00,Wunderground v.1.15,2013-04-24 21:01:00,
2013-04-24 16:06:00,48.8,34.2,29.82,SSW,211,5.0,9.0,57,0.00,,,0.00,Wunderground v.1.15,2013-04-24 21:06:00,
2013-04-24 16:11:00,49.1,34.5,29.82,WSW,257,5.0,5.0,57,0.00,,,0.00,Wunderground v.1.15,2013-04-24 21:11:00,
2013-04-24 16:17:00,49.0,33.1,29.82,West,261,5.0,8.0,54,0.00,,,0.00,Wunderground v.1.15,2013-04-24 21:17:00,
2013-04-24 16:22:00,48.6,33.1,29.82,West,260,6.0,12.0,55,0.00,,,0.00,Wunderground v.1.15,2013-04-24 21:22:00,
2013-04-24 16:27:00,48.6,34.0,29.82,West,271,6.0,12.0,57,0.00,,,0.00,Wunderground v.1.15,2013-04-24 21:27:00,
2013-04-24 16:32:00,48.7,33.2,29.82,WSW,245,5.0,6.0,55,0.00,,,0.00,Wunderground v.1.15,2013-04-24 21:32:00,
2013-04-24 16:37:00,48.3,31.5,29.81,WSW,251,5.0,8.0,52,0.00,,,0.00,Wunderground v.1.15,2013-04-24 21:37:00,
2013-04-24 16:43:00,47.7,31.4,29.81,West,279,6.0,6.0,53,0.00,,,0.00,Wunderground v.1.15,2013-04-24 21:43:00,
2013-04-24 16:48:00,47.6,31.3,29.81,West,279,6.0,8.0,53,0.00,,,0.00,Wunderground v.1.15,2013-04-24 21:48:00,
2013-04-24 16:53:00,47.5,31.7,29.81,West,259,6.0,7.0,54,0.00,,,0.00,Wunderground v.1.15,2013-04-24 21:53:00,
2013-04-24 16:58:00,47.3,32.4,29.81,West,263,5.0,8.0,56,0.00,,,0.00,Wunderground v.1.15,2013-04-24 21:58:00,
2013-04-24 17:03:00,47.1,32.6,29.81,WSW,242,5.0,7.0,57,0.00,,,0.00,Wunderground v.1.15,2013-04-24 22:03:00,
2013-04-24 17:09:00,46.8,31.5,29.81,West,269,5.0,7.0,55,0.00,,,0.00,Wunderground v.1.15,2013-04-24 22:09:00,
2013-04-24 17:14:00,46.7,32.7,29.80,WSW,242,5.0,7.0,58,0.00,,,0.00,Wunderground v.1.15,2013-04-24 22:14:00,
2013-04-24 17:19:00,46.5,32.1,29.81,West,263,5.0,7.0,57,0.00,,,0.00,Wunderground v.1.15,2013-04-24 22:19:00,
2013-04-24 17:24:00,46.4,32.4,29.80,West,277,5.0,10.0,58,0.00,,,0.00,Wunderground v.1.15,2013-04-24 22:24:00,
2013-04-24 17:29:00,46.3,31.4,29.80,WSW,256,6.0,12.0,56,0.00,,,0.00,Wunderground v.1.15,2013-04-24 22:29:00,
2013-04-24 17:35:00,46.3,27.7,29.80,West,266,6.0,10.0,48,0.00,,,0.00,Wunderground v.1.15,2013-04-24 22:35:00,
2013-04-24 17:40:00,46.3,28.7,29.80,West,268,7.0,7.0,50,0.00,,,0.00,Wunderground v.1.15,2013-04-24 22:40:00,
2013-04-24 17:45:00,46.0,29.3,29.80,West,281,7.0,9.0,52,0.00,,,0.00,Wunderground v.1.15,2013-04-24 22:45:00,
2013-04-24 17:50:00,45.9,32.8,29.81,WNW,284,6.0,6.0,60,0.00,,,0.00,Wunderground v.1.15,2013-04-24 22:50:00,
2013-04-24 17:55:00,45.6,32.9,29.81,WNW,284,5.0,9.0,61,0.00,,,0.00,Wunderground v.1.15,2013-04-24 22:55:00,
2013-04-24 18:01:00,45.1,32.8,29.81,WNW,297,6.0,6.0,62,0.00,,,0.00,Wunderground v.1.15,2013-04-24 23:01:00,
2013-04-24 18:06:00,44.8,32.6,29.81,West,269,7.0,8.0,62,0.00,,,0.00,Wunderground v.1.15,2013-04-24 23:06:00,
2013-04-24 18:11:00,44.5,32.7,29.81,West,270,6.0,7.0,63,0.00,,,0.00,Wunderground v.1.15,2013-04-24 23:11:00,
2013-04-24 18:16:00,44.2,32.8,29.81,WNW,287,6.0,9.0,64,0.00,,,0.00,Wunderground v.1.15,2013-04-24 23:16:00,
2013-04-24 18:21:00,43.8,32.4,29.80,West,260,6.0,8.0,64,0.00,,,0.00,Wunderground v.1.15,2013-04-24 23:21:00,
2013-04-24 18:27:00,43.5,33.3,29.80,West,270,5.0,8.0,67,0.00,,,0.00,Wunderground v.1.15,2013-04-24 23:27:00,
2013-04-24 18:32:00,43.1,33.3,29.81,WSW,258,5.0,12.0,68,0.00,,,0.00,Wunderground v.1.15,2013-04-24 23:32:00,
2013-04-24 18:37:00,42.0,34.0,29.81,West,262,6.0,12.0,73,0.00,,,0.00,Wunderground v.1.15,2013-04-24 23:37:00,
2013-04-24 18:42:00,41.4,33.7,29.81,WNW,288,6.0,6.0,74,0.00,,,0.00,Wunderground v.1.15,2013-04-24 23:42:00,
2013-04-24 18:47:00,41.0,35.6,29.82,WNW,293,5.0,11.0,81,0.00,,,0.00,Wunderground v.1.15,2013-04-24 23:47:00,
2013-04-24 18:53:00,39.4,35.0,29.82,NW,324,5.0,6.0,84,0.00,,,0.01,Wunderground v.1.15,2013-04-24 23:53:00,
2013-04-24 18:58:00,38.4,34.6,29.82,NW,308,4.0,7.0,86,0.00,,,0.01,Wunderground v.1.15,2013-04-24 23:58:00,
2013-04-24 19:03:00,37.7,34.5,29.83,WNW,300,4.0,4.0,88,0.00,,,0.01,Wunderground v.1.15,2013-04-25 00:03:00,
2013-04-24 19:08:00,37.3,34.4,29.82,North,350,3.0,4.0,89,0.00,,,0.01,Wunderground v.1.15,2013-04-25 00:08:00,
2013-04-24 19:13:00,37.0,34.3,29.82,NW,312,3.0,3.0,90,0.00,,,0.01,Wunderground v.1.15,2013-04-25 00:13:00,
2013-04-24 19:19:00,36.9,34.5,29.82,NNE,18,2.0,3.0,91,0.00,,,0.01,Wunderground v.1.15,2013-04-25 00:19:00,
2013-04-24 19:24:00,36.6,34.2,29.82,NNW,328,1.0,2.0,91,0.00,,,0.01,Wunderground v.1.15,2013-04-25 00:24:00,
2013-04-24 19:29:00,36.4,34.0,29.82,NNE,21,1.0,2.0,91,0.00,,,0.01,Wunderground v.1.15,2013-04-25 00:29:00,
2013-04-24 19:34:00,36.3,33.9,29.82,NNW,332,1.0,2.0,91,0.00,,,0.01,Wunderground v.1.15,2013-04-25 00:34:00,
2013-04-24 19:39:00,36.3,34.2,29.82,NNW,331,1.0,2.0,92,0.00,,,0.01,Wunderground v.1.15,2013-04-25 00:39:00,
2013-04-24 19:45:00,36.3,34.2,29.83,WNW,283,1.0,2.0,92,0.00,,,0.01,Wunderground v.1.15,2013-04-25 00:45:00,
2013-04-24 19:50:00,36.2,34.1,29.83,NW,316,1.0,1.0,92,0.00,,,0.01,Wunderground v.1.15,2013-04-25 00:50:00,
2013-04-24 19:55:00,36.2,34.1,29.83,NW,308,2.0,3.0,92,0.00,,,0.01,Wunderground v.1.15,2013-04-25 00:55:00,
2013-04-24 20:00:00,36.1,34.0,29.83,WSW,258,1.0,3.0,92,0.00,,,0.01,Wunderground v.1.15,2013-04-25 01:00:00,
2013-04-24 20:05:00,36.1,34.0,29.84,West,277,1.0,3.0,92,0.00,,,0.01,Wunderground v.1.15,2013-04-25 01:05:00,
2013-04-24 20:11:00,36.0,33.9,29.84,WNW,286,2.0,2.0,92,0.00,,,0.01,Wunderground v.1.15,2013-04-25 01:11:00,
2013-04-24 20:16:00,36.0,33.9,29.84,West,276,2.0,4.0,92,0.00,,,0.01,Wunderground v.1.15,2013-04-25 01:16:00,
2013-04-24 20:21:00,35.9,33.8,29.84,WSW,256,2.0,2.0,92,0.00,,,0.01,Wunderground v.1.15,2013-04-25 01:21:00,
2013-04-24 20:26:00,35.8,33.7,29.84,West,264,2.0,4.0,92,0.00,,,0.01,Wunderground v.1.15,2013-04-25 01:26:00,
2013-04-24 20:31:00,35.8,33.7,29.84,WSW,250,3.0,3.0,92,0.00,,,0.01,Wunderground v.1.15,2013-04-25 01:31:00,
2013-04-24 20:36:00,35.5,33.4,29.84,WSW,252,3.0,4.0,92,0.00,,,0.01,Wunderground v.1.15,2013-04-25 01:36:00,
2013-04-24 20:41:00,35.3,33.2,29.85,West,271,3.0,3.0,92,0.00,,,0.01,Wunderground v.1.15,2013-04-25 01:41:00,
2013-04-24 20:46:00,35.2,33.1,29.85,WSW,247,3.0,5.0,92,0.00,,,0.01,Wunderground v.1.15,2013-04-25 01:46:00,
2013-04-24 20:51:00,35.1,33.3,29.86,WSW,252,3.0,3.0,93,0.00,,,0.01,Wunderground v.1.15,2013-04-25 01:51:00,
2013-04-24 20:56:00,35.1,33.3,29.86,West,269,3.0,6.0,93,0.00,,,0.01,Wunderground v.1.15,2013-04-25 01:56:00,
2013-04-24 21:02:00,35.2,33.4,29.86,WSW,252,3.0,3.0,93,0.00,,,0.01,Wunderground v.1.15,2013-04-25 02:02:00,
2013-04-24 21:07:00,35.1,33.3,29.86,West,259,3.0,5.0,93,0.00,,,0.01,Wunderground v.1.15,2013-04-25 02:07:00,
2013-04-24 21:12:00,35.0,33.2,29.86,West,263,2.0,3.0,93,0.00,,,0.01,Wunderground v.1.15,2013-04-25 02:12:00,
2013-04-24 21:17:00,34.9,32.8,29.86,WSW,257,2.0,3.0,92,0.00,,,0.01,Wunderground v.1.15,2013-04-25 02:17:00,
2013-04-24 21:23:00,34.7,32.9,29.86,WSW,257,1.0,2.0,93,0.00,,,0.01,Wunderground v.1.15,2013-04-25 02:23:00,
2013-04-24 21:28:00,34.6,32.8,29.86,West,259,1.0,2.0,93,0.00,,,0.01,Wunderground v.1.15,2013-04-25 02:28:00,
2013-04-24 21:33:00,34.7,32.9,29.86,WSW,252,1.0,2.0,93,0.00,,,0.01,Wunderground v.1.15,2013-04-25 02:33:00,
2013-04-24 21:38:00,34.6,32.8,29.86,WSW,250,1.0,2.0,93,0.00,,,0.01,Wunderground v.1.15,2013-04-25 02:38:00,
2013-04-24 21:43:00,34.5,32.7,29.87,WSW,252,1.0,1.0,93,0.00,,,0.01,Wunderground v.1.15,2013-04-25 02:43:00,
2013-04-24 21:48:00,34.5,32.7,29.87,West,263,1.0,1.0,93,0.00,,,0.01,Wunderground v.1.15,2013-04-25 02:48:00,
2013-04-24 21:53:00,34.4,32.6,29.87,WSW,257,1.0,1.0,93,0.00,,,0.01,Wunderground v.1.15,2013-04-25 02:53:00,
2013-04-24 21:59:00,34.4,32.6,29.87,West,263,1.0,2.0,93,0.00,,,0.01,Wunderground v.1.15,2013-04-25 02:59:00,
2013-04-24 22:04:00,34.5,33.0,29.87,WSW,257,2.0,3.0,94,0.00,,,0.01,Wunderground v.1.15,2013-04-25 03:04:00,
2013-04-24 22:09:00,34.7,33.2,29.87,West,261,2.0,3.0,94,0.00,,,0.01,Wunderground v.1.15,2013-04-25 03:09:00,
2013-04-24 22:14:00,34.9,33.1,29.87,WSW,257,2.0,3.0,93,0.00,,,0.01,Wunderground v.1.15,2013-04-25 03:14:00,
2013-04-24 22:19:00,35.0,33.2,29.88,WSW,257,2.0,3.0,93,0.00,,,0.01,Wunderground v.1.15,2013-04-25 03:19:00,
2013-04-24 22:25:00,35.3,33.5,29.88,WSW,256,3.0,4.0,93,0.00,,,0.01,Wunderground v.1.15,2013-04-25 03:25:00,
2013-04-24 22:30:00,35.5,33.7,29.88,WSW,248,3.0,3.0,93,0.00,,,0.01,Wunderground v.1.15,2013-04-25 03:30:00,
2013-04-24 22:35:00,35.7,33.9,29.88,West,260,4.0,5.0,93,0.00,,,0.01,Wunderground v.1.15,2013-04-25 03:35:00,
2013-04-24 22:40:00,35.8,33.7,29.88,West,263,3.0,4.0,92,0.00,,,0.01,Wunderground v.1.15,2013-04-25 03:40:00,
2013-04-24 22:45:00,35.8,33.7,29.88,West,280,3.0,6.0,92,0.00,,,0.01,Wunderground v.1.15,2013-04-25 03:45:00,
2013-04-24 22:51:00,35.9,33.8,29.88,WSW,243,3.0,4.0,92,0.00,,,0.01,Wunderground v.1.15,2013-04-25 03:51:00,
2013-04-24 22:56:00,36.0,33.9,29.88,West,281,4.0,9.0,92,0.00,,,0.01,Wunderground v.1.15,2013-04-25 03:56:00,
2013-04-24 23:01:00,36.1,33.7,29.88,West,274,5.0,10.0,91,0.00,,,0.01,Wunderground v.1.15,2013-04-25 04:01:00,
2013-04-24 23:02:00,36.2,33.8,29.88,West,270,5.0,10.0,91,0.00,,,0.01,Wunderground v.1.15,2013-04-25 04:02:00,
2013-04-24 23:03:00,36.2,33.8,29.88,West,272,5.0,10.0,91,0.00,,,0.01,Wunderground v.1.15,2013-04-25 04:03:00,
2013-04-24 23:04:00,36.2,33.8,29.88,West,270,5.0,10.0,91,0.00,,,0.01,Wunderground v.1.15,2013-04-25 04:04:00,
2013-04-24 23:05:00,36.2,33.8,29.88,WSW,252,5.0,10.0,91,0.00,,,0.01,Wunderground v.1.15,2013-04-25 04:05:00,
2013-04-24 23:10:00,36.3,33.9,29.88,West,264,4.0,6.0,91,0.00,,,0.01,Wunderground v.1.15,2013-04-25 04:10:00,
2013-04-24 23:15:00,36.4,34.0,29.88,WSW,255,4.0,6.0,91,0.00,,,0.01,Wunderground v.1.15,2013-04-25 04:15:00,
2013-04-24 23:20:00,36.4,34.0,29.88,West,264,5.0,6.0,91,0.00,,,0.01,Wunderground v.1.15,2013-04-25 04:20:00,
2013-04-24 23:26:00,36.3,33.6,29.89,SW,231,4.0,8.0,90,0.00,,,0.01,Wunderground v.1.15,2013-04-25 04:26:00,
2013-04-24 23:31:00,36.1,33.5,29.88,WNW,283,4.0,6.0,90,0.00,,,0.01,Wunderground v.1.15,2013-04-25 04:31:00,
2013-04-24 23:36:00,35.8,32.9,29.88,West,263,5.0,7.0,89,0.00,,,0.01,Wunderground v.1.15,2013-04-25 04:36:00,
2013-04-24 23:41:00,35.7,32.8,29.89,West,273,6.0,6.0,89,0.00,,,0.01,Wunderground v.1.15,2013-04-25 04:41:00,
2013-04-24 23:46:00,35.6,32.7,29.89,West,264,6.0,8.0,89,0.00,,,0.01,Wunderground v.1.15,2013-04-25 04:46:00,
2013-04-24 23:52:00,35.6,32.7,29.89,West,264,6.0,6.0,89,0.00,,,0.01,Wunderground v.1.15,2013-04-25 04:52:00,
2013-04-24 23:57:00,35.5,32.6,29.89,West,278,5.0,10.0,89,0.00,,,0.01,Wunderground v.1.15,2013-04-25 04:57:00,